Погода Каменная Степь

Погода Каменная Степь : погода сейчас, прогноз погоды и архив. Всё, что Вы хотите узнать о погоде Каменная Степь!

Поиск расширенной информации на нашем сайте:

Другие новости

Новости СМИ2

Главная страница сайта

Новости сайта

03.07.2017

Напоминаем, что на нашем специализированном сайте Метеоцентр.Азия вы можете получить высокодетализированные автоматические прогнозы погоды по пунктам России, СНГ и мира в авиационном формате (включающие направление и скорость ветра, видимость, явления погоды, количество и форму облачности, нижнюю и верхнюю границу облачности).


Погода Каменная Степь - сегодня

Время (UTC), дата Ветер
(°,м/с) 
Видим.   Явления Облачность Т
(°С)
Тd
(°С)
f(%) Тe
(°С)
Pmin
(гПа)
dP
(гПа)
Po
(мм)
O2
(г/м3)
Тmin Tmax R s Состояние
почвы
00 19.11.17 110 (В) 4000 м  дымка  10/10 600 м 
[Sc]
+0.7 -0.1 94 -1  1019.2  -1.4  746  300           
03 19.11.17 110 (В) 2000 м  дымка  10/10 600 м 
[Sc]
+0.8 +0.5 98 1017.9  -1.3  745  299  -1.3         
06 19.11.17 110 (В) 1400 м  слаб. дождь  10/10 300 м 
[Frnb|Ns]
+1.3 +1 98 -1  1016.8  -1  744  298           
09 19.11.17 140 (ЮВ) 4500 м  дымка{дождь}  10/10 300 м 
[St]
+2.8 +2.5 98 1014.6  -2  743  296           
12 19.11.17 110 (В) 5000 м  слаб. дождь  10/10 300 м 
[Frnb|Ns]
+3.5 +3 97 +1  1012.5  -2  741  294           
15 19.11.17 140 (ЮВ) 4000 м  дымка{дождь}  10/10 300 м 
[St]
+3.8 +3.6 99 +2  1012.2  -0.2  741  294    +3.8     
18 19.11.17 160 (Ю) 4000 м  дымка{дождь}  10/10 300 м 
[St]
+4.5 +4.3 99 +3  1011.7  -0.5  740  293           
21 19.11.17 180 (Ю) 4000 м  слаб. морось  10/10 300 м 
[St]
+5.3 +5.1 99 +4  1012  0.4  741  292           
00 20.11.17 180 (Ю) 4000 м  дымка{морось}  10/10 300 м 
[St]
+5.3 +5.1 99 +6  1011.9  -0.1  741  292           
03 20.11.17 020 (С) 4000 м  дымка{морось}  10/10 300 м 
[St]
+4.3 +4.1 99 +5  1011.8  -0.2  741  293  +3.7    0.7     
06 20.11.17 020 (С) 0700 м  слаб. дождь{морось}  ?/?  
+4 +3.8 99 +4  1012.1  0.3  741  294           
09 20.11.17 050 (СВ) 0400 м  туман{дождь}  ?/?  
+5 +5 100 +4  1010.9  -1.1  740  292           
12 20.11.17 070 (В) 0400 м  слаб. дождь{туман}  ?/?  
+6.7 +6.7 100 +6  1009.3  -1.4  739  290           
15 20.11.17 110 (В) 4000 м  дымка{дождь, туман}  10/10 300 м 
[St]
+6.6 +6.4 99 +5  1008.1  -1.1  739  289    +7.5     
18 20.11.17 130 (ЮВ) 6-10{10}  4000 м  дымка{дождь, туман}  10/10 300 м 
[Cu Sc]
+7 +6.8 99 +5  1006.1  -2  737  288           
21 20.11.17 130 (ЮВ) 7-11{13}  4000 м  в посл. час дождь  10/10 300 м 
[Frnb]
+7.4 +6.7 95 +5  1003.6  -2.5  735  287           
00 21.11.17 140 (ЮВ) 5{12}  4000 м  дождь  10/10 300 м 
[Frnb|Ns]
+8 +7.1 94 +6  1003.1  -0.3  735  286           
03 21.11.17 140 (ЮВ) 3{10}  4000 м  дымка{дождь}  10/10 300 м 
[Frnb]
+8.2 +7.4 95 +8  1002.5  -0.6  734  286  +6.6       
06 21.11.17 140 (ЮВ) 8000 м  дымка{дождь}  10/10 300 м 
[St]
+8.1 +7.4 95 +7  1002.4  -0.1  734  286           
09 21.11.17 270 (З) 1200 м  слаб. дождь  10/10 300 м 
[Frnb|Ns]
+4.2 +4 99 +3  1003.2  0.5  735  291           
12 21.11.17 290 (З) 0800 м  дождь{туман}  ?/?  
+2.9 +2.7 99 +1  1003.2  -0.1  735  292           
15 21.11.17 320 (СЗ) 2000 м  дождь  10/10 300 м 
[Frnb|Ns]
+2.6 +2.3 98 +1  1003.2  -0.1  735  293    +8.5     
18 21.11.17 330 (СЗ) 4000 м  слаб. морось{дождь, туман}  10/10 300 м 
[Frnb]
+2.1 +1.7 97 1002  -1.2  734  293           
21 21.11.17 310 (СЗ) 2000 м  морось  10/10 300 м 
[Frnb]
+1.4 +1.1 98 -1  1002.2  0.1  734  294           
00 22.11.17 350 (С) 2000 м  слаб. морось  10/10 300 м 
[Frnb]
+1.1 +0.8 98 -1  1000.5  -1.7  733  294           
Время (UTC), дата Ветер
(°,м/с) 
Видим.   Явления Облачность Т
(°С)
Тd
(°С)
f(%) Тe
(°С)
Pmin
(гПа)
dP
(гПа)
Po
(мм)
O2
(г/м3)
Тmin Tmax R s Состояние
почвы

Для получения пояснительной информации подведите курсор к названию столбца.

ПОГОДА Каменная Степь - архив

Всё, что Вы хотите узнать о погоде Каменная Степь - удобно и подробно!

Выберите нужную дату (начиная с 1 января 2015* года) и нажмите кнопку "Найти".
Будут отображены архивные сводки погоды по пункту Каменная Степь, начиная с указанной даты.


Отображать данные в формате CSV (для использования в таблицах Excel)


Внимание! Наш архив погоды предназначен исключительно для личного некоммерческого использования в познавательных целях. Если Вам необходимы официальные справки о состоянии погоды (для производственных, юридических, коммерческих и т.п. целей), обращайтесь в органы Росгидромета.

*Примечание: данная дата относится к архиву по метеостанциям СССР (Россия, СНГ, Балтия).
Архив по метеостанциям Зарубежной Европы и Азии (кроме Китая) хранится 10 дней, по другим регионам земного шара (Китай, Африка, Америка, Австралия, Океания) - 1 день.

Каменная Степь - район местоположения метеостанции


Название, широта, долгота, высота метеостанции:
Каменная Степь 51.1°ш. 40.7°д. 194 м над ур. моря [Российская Федерация]

Дополнительная информация

В oтличие oт бoльшинства пoгoдных сайтoв мы публикуем пoдрoбную метеoинфoрмацию в детальнoм прoфессиoнальнoм фoрмате.

Характеристики температуры и влажнoсти вoздуха измеряются на высoте 2 м в тени вдали oт зданий и деревьев.
Скoрoсть ветра измеряется на высoте 10 м (на урoвне рoста челoвека скoрoсть ветра ниже в 1.5-2 раза). Если метеoстанция нахoдится в гoрoде или в лесу, тo скoрoсть ветра занижена на 2-4 м/с пo сравнению с oткрытым местoм. Скoрoсть ветра над акватoриями крупных рек и oзёр, а также на вершинах хoлмoв на 2-5 м/с выше, чем в oбычных услoвиях.
Атмoсфернoе давление в разных тoчках местнoсти мoжет значительнo oтличаться oт давления на метеoстанции, в зависимoсти oт услoвий рельефа (при пoдъёме на 10 м давление пoнижается примернo на 1 мм рт.ст.).